EN

Hourly Weather Panajachel

Today, 18 April, Sunday

Time Temperature Precipitation Wind Pressure Humidity
00:00 +13°C° 0.2 mm 1 mps 579 mmHg 91%
01:00 +13°C° 0 mm 1 mps 578 mmHg 90%
02:00 +12°C° 0 mm 1 mps 578 mmHg 88%
03:00 +12°C° 0 mm 1 mps 577 mmHg 87%
04:00 +12°C° 0 mm 1 mps 577 mmHg 86%
05:00 +12°C° 0 mm 1 mps 578 mmHg 85%
06:00 +12°C° 0 mm 1 mps 578 mmHg 84%
07:00 +14°C° 0 mm 1 mps 579 mmHg 76%
08:00 +16°C° 0 mm 1 mps 580 mmHg 69%
09:00 +20°C° 0 mm 1 mps 581 mmHg 61%
10:00 +21°C° 0.1 mm 1 mps 581 mmHg 59%
11:00 +21°C° 0.1 mm 2 mps 582 mmHg 56%
12:00 +23°C° 0.1 mm 2 mps 582 mmHg 54%
13:00 +21°C° 0.9 mm 2 mps 581 mmHg 60%
14:00 +19°C° 0.9 mm 2 mps 580 mmHg 67%
15:00 +18°C° 0.9 mm 2 mps 579 mmHg 74%
16:00 +18°C° 1 mm 1 mps 579 mmHg 79%
17:00 +16°C° 1 mm 1 mps 579 mmHg 85%
18:00 +14°C° 1 mm 0 mps 578 mmHg 91%
19:00 +14°C° 1.8 mm 0 mps 579 mmHg 91%
20:00 +14°C° 1.8 mm 0 mps 579 mmHg 91%
21:00 +13°C° 1.8 mm 0 mps 579 mmHg 91%
22:00 +13°C° 0.8 mm 0 mps 579 mmHg 91%
23:00 +13°C° 0.8 mm 0 mps 579 mmHg 91%

Tomorrow, 19 April, Monday

Time Temperature Precipitation Wind Pressure Humidity
00:00 +13°C° 0.8 mm 0 mps 579 mmHg 90%
01:00 +12°C° 1.3 mm 0 mps 578 mmHg 91%
02:00 +13°C° 1.3 mm 1 mps 578 mmHg 92%
03:00 +13°C° 1.3 mm 1 mps 578 mmHg 93%
04:00 +13°C° 1.1 mm 1 mps 578 mmHg 93%
05:00 +13°C° 1.1 mm 1 mps 578 mmHg 92%
06:00 +13°C° 1.1 mm 1 mps 579 mmHg 92%
07:00 +14°C° 0.3 mm 1 mps 579 mmHg 86%
08:00 +16°C° 0.3 mm 1 mps 580 mmHg 80%
09:00 +18°C° 0.3 mm 1 mps 581 mmHg 75%
10:00 +19°C° 0.7 mm 1 mps 581 mmHg 71%
11:00 +20°C° 0.7 mm 1 mps 581 mmHg 68%
12:00 +20°C° 0.7 mm 2 mps 581 mmHg 65%
13:00 +20°C° 1 mm 1 mps 581 mmHg 67%
14:00 +20°C° 1 mm 1 mps 580 mmHg 68%
15:00 +19°C° 1 mm 1 mps 579 mmHg 70%
16:00 +18°C° 0.4 mm 1 mps 579 mmHg 75%
17:00 +16°C° 0.4 mm 1 mps 579 mmHg 80%
18:00 +14°C° 0.4 mm 0 mps 579 mmHg 85%
19:00 +14°C° 0.1 mm 0 mps 579 mmHg 87%
20:00 +13°C° 0.1 mm 0 mps 579 mmHg 89%
21:00 +13°C° 0.1 mm 0 mps 579 mmHg 91%
22:00 +12°C° 0.3 mm 0 mps 579 mmHg 91%
23:00 +13°C° 0.3 mm 1 mps 579 mmHg 91%

Day after tomorrow, 20 April, Tuesday

Time Temperature Precipitation Wind Pressure Humidity
00:00 +13°C° 0.3 mm 1 mps 579 mmHg 90%
01:00 +13°C° 0.2 mm 1 mps 578 mmHg 90%
02:00 +12°C° 0.2 mm 1 mps 578 mmHg 90%
03:00 +12°C° 0.2 mm 1 mps 578 mmHg 89%
04:00 +12°C° 0.1 mm 1 mps 578 mmHg 89%
05:00 +12°C° 0.1 mm 1 mps 578 mmHg 89%
06:00 +12°C° 0.1 mm 1 mps 578 mmHg 89%
07:00 +14°C° 0 mm 1 mps 580 mmHg 83%
08:00 +16°C° 0 mm 1 mps 581 mmHg 76%
09:00 +19°C° 0 mm 1 mps 582 mmHg 70%
10:00 +19°C° 0.7 mm 1 mps 581 mmHg 70%
11:00 +20°C° 0.7 mm 1 mps 581 mmHg 69%
12:00 +19°C° 0.7 mm 2 mps 581 mmHg 69%
13:00 +19°C° 1.6 mm 1 mps 581 mmHg 73%
14:00 +18°C° 1.6 mm 1 mps 580 mmHg 78%
15:00 +18°C° 1.6 mm 1 mps 579 mmHg 82%
16:00 +16°C° 3.9 mm 1 mps 579 mmHg 86%
17:00 +15°C° 3.9 mm 1 mps 578 mmHg 89%
18:00 +13°C° 3.9 mm 0 mps 578 mmHg 93%
19:00 +14°C° 5.5 mm 1 mps 579 mmHg 94%
20:00 +14°C° 5.5 mm 1 mps 579 mmHg 94%
21:00 +14°C° 5.5 mm 1 mps 580 mmHg 94%
22:00 +14°C° 1.8 mm 1 mps 580 mmHg 94%
23:00 +14°C° 1.8 mm 1 mps 580 mmHg 93%

21 April, Wednesday

Time Temperature Precipitation Wind Pressure Humidity
00:00 +14°C° 1.8 mm 1 mps 580 mmHg 92%
01:00 +14°C° 0.2 mm 1 mps 579 mmHg 92%
02:00 +13°C° 0.2 mm 1 mps 579 mmHg 91%
03:00 +13°C° 0.2 mm 1 mps 579 mmHg 91%
04:00 +13°C° 0.1 mm 1 mps 579 mmHg 91%
05:00 +13°C° 0.1 mm 1 mps 579 mmHg 90%
06:00 +13°C° 0.1 mm 1 mps 579 mmHg 90%
07:00 +14°C° 0.1 mm 1 mps 580 mmHg 86%
08:00 +15°C° 0.1 mm 1 mps 580 mmHg 82%
09:00 +16°C° 0.1 mm 1 mps 581 mmHg 78%
10:00 +18°C° 0.3 mm 1 mps 581 mmHg 75%
11:00 +19°C° 0.3 mm 1 mps 581 mmHg 71%
12:00 +19°C° 0.3 mm 2 mps 582 mmHg 67%
13:00 +19°C° 1.6 mm 1 mps 581 mmHg 73%
14:00 +18°C° 1.6 mm 1 mps 580 mmHg 80%
15:00 +14°C° 1.6 mm 0 mps 579 mmHg 86%
16:00 +14°C° 0.7 mm 0 mps 579 mmHg 87%
17:00 +14°C° 0.7 mm 0 mps 579 mmHg 88%
18:00 +13°C° 0.7 mm 0 mps 579 mmHg 90%
19:00 +14°C° 0.4 mm 1 mps 579 mmHg 90%
20:00 +14°C° 0.4 mm 1 mps 579 mmHg 89%
21:00 +14°C° 0.4 mm 1 mps 580 mmHg 89%
22:00 +13°C° 0.1 mm 1 mps 579 mmHg 90%
23:00 +13°C° 0.1 mm 1 mps 579 mmHg 91%

22 April, Thursday

Time Temperature Precipitation Wind Pressure Humidity
00:00 +13°C° 0.1 mm 1 mps 579 mmHg 92%
01:00 +12°C° 0.1 mm 1 mps 579 mmHg 93%
02:00 +12°C° 0.1 mm 1 mps 578 mmHg 93%
03:00 +12°C° 0.1 mm 2 mps 578 mmHg 94%
04:00 +12°C° 0 mm 2 mps 578 mmHg 94%
05:00 +12°C° 0 mm 1 mps 578 mmHg 93%
06:00 +12°C° 0 mm 1 mps 578 mmHg 93%
07:00 +14°C° 0 mm 1 mps 579 mmHg 86%
08:00 +15°C° 0 mm 1 mps 580 mmHg 79%
09:00 +18°C° 0 mm 1 mps 581 mmHg 72%
10:00 +19°C° 0.1 mm 1 mps 581 mmHg 67%
11:00 +20°C° 0.1 mm 1 mps 582 mmHg 62%
12:00 +21°C° 0.1 mm 2 mps 582 mmHg 56%
13:00 +20°C° 0.8 mm 2 mps 581 mmHg 60%
14:00 +19°C° 0.8 mm 2 mps 580 mmHg 64%
15:00 +18°C° 0.8 mm 2 mps 580 mmHg 67%
16:00 +18°C° 0.8 mm 1 mps 579 mmHg 74%
17:00 +16°C° 0.8 mm 1 mps 579 mmHg 80%
18:00 +15°C° 0.8 mm 1 mps 579 mmHg 87%
19:00 +14°C° 0.4 mm 1 mps 579 mmHg 89%
20:00 +14°C° 0.4 mm 1 mps 579 mmHg 91%
21:00 +13°C° 0.4 mm 1 mps 579 mmHg 93%
22:00 +13°C° 0 mm 1 mps 579 mmHg 94%
23:00 +13°C° 0 mm 1 mps 579 mmHg 94%

23 April, Friday

Time Temperature Precipitation Wind Pressure Humidity
00:00 +12°C° 0 mm 1 mps 579 mmHg 94%
01:00 +12°C° 0 mm 1 mps 578 mmHg 93%
02:00 +12°C° 0 mm 1 mps 578 mmHg 92%
03:00 +11°C° 0 mm 1 mps 578 mmHg 91%
04:00 +11°C° 0 mm 1 mps 578 mmHg 89%
05:00 +11°C° 0 mm 1 mps 578 mmHg 88%
06:00 +9°C° 0 mm 2 mps 578 mmHg 86%
07:00 +13°C° 0 mm 1 mps 579 mmHg 74%
08:00 +15°C° 0 mm 1 mps 580 mmHg 62%
09:00 +19°C° 0 mm 1 mps 582 mmHg 50%
10:00 +20°C° 0 mm 1 mps 582 mmHg 47%
11:00 +20°C° 0 mm 2 mps 582 mmHg 44%
12:00 +21°C° 0 mm 2 mps 582 mmHg 41%
13:00 +21°C° 0.1 mm 2 mps 581 mmHg 44%
14:00 +20°C° 0.1 mm 2 mps 581 mmHg 48%
15:00 +20°C° 0.1 mm 2 mps 580 mmHg 52%
16:00 +18°C° 0.1 mm 2 mps 580 mmHg 59%
17:00 +18°C° 0.1 mm 1 mps 579 mmHg 67%
18:00 +15°C° 0.1 mm 1 mps 579 mmHg 75%
19:00 +14°C° 0 mm 1 mps 579 mmHg 77%
20:00 +14°C° 0 mm 1 mps 579 mmHg 79%
21:00 +12°C° 0 mm 0 mps 579 mmHg 80%
22:00 +12°C° 0 mm 1 mps 579 mmHg 81%
23:00 +12°C° 0 mm 1 mps 579 mmHg 82%
Show more

We Need Your Consent

Meteoprog and our Service Providers may store and access personal data such as cookies, device identifiers or other similar technologies on your device and process such data to personalise content and ads, as well as provide social media features and to analyse the traffic.

  • Store and/or access information on your device

    Cookies, device identifiers or other information can be stored or accessed on your device for the purposes indicated above.

  • Personalised ads and content, ad and content measurement, audience insights, and products development

    Ads and content can be personalised based on a profile. More data can be added to better personalise ads and content. Ad and content performance can be measured. Insights about the audience who saw the ads and content can be derived. Such data can be used to develop or improve user’s experience, systems and software.

By clicking ‘I Agree’ you will allow the use of indicated cookies, device identifiers, web beacons or other similar technologies. Your settings can be changed in the browser on your device.

For certain purposes, legitimate interests may be relied on, rather than consent. You can read more about this in our Privacy and Cookie Policy.